886  
ASUS42 KILM 021310  
RWRILM  
RWRILM  
REGIONAL HOURLY WEATHER ROUNDUP  
NATIONAL WEATHER SERVICE WILMINGTON NC  
800 AM EST FRI DEC 02 2022  
 
NOTE: "FAIR" INDICATES FEW OR NO CLOUDS BELOW 12,000 FEET WITH NO  
SIGNIFICANT WEATHER AND/OR S TO VISIBILITY
.  
   
..............WFO WILMINGTON COUNTY WARNING AREA............
 
 
   
.....COASTAL NC AND SC COUNTIES...
 
 
 
CITY SKY/WX TMP DP RH WIND PRES REMARKS
 
WILMINGTON CLEAR 39 30 70 NE7 30.53S WCI 34  
N MYRTLE BEACH CLEAR 41 28 60 NE10 30.52R  
MYRTLE BEACH CLEAR 42 27 55 N10 30.53R  
   
.....INLAND NC AND SC COUNTIES....
 
 
 
CITY SKY/WX TMP DP RH WIND PRES REMARKS
 
LUMBERTON CLEAR 33 30 88 CALM 30.55R  
ELIZABETHTOWN CLEAR 34 25 71 N3 30.56R  
WHITEVILLE CLEAR 34 28 78 CALM 30.55S  
FLORENCE CLEAR 36 26 67 N5 30.55R WCI 32  
DARLINGTON CLEAR 32 31 96 N3 30.56R  
KINGSTREE FAIR 36 27 69 CALM 30.54R  
HARTSVILLE FAIR 39 23 52 NE6 30.55R WCI 35  
BENNETTSVILLE FAIR 30 30 100 CALM 30.57R  
CONWAY FAIR 34 30 86 NE5 30.53S WCI 30  
GEORGETOWN FAIR 41 32 70 N8 30.51R  
MARION FAIR 34 23 64 NE5 30.55R WCI 30  
   
...................REST OF NORTH CAROLINA...................
 
 
   
........EASTERN NC......
 
 
 
CITY SKY/WX TMP DP RH WIND PRES REMARKS
 
CAPE HATTERAS SUNNY 50 42 74 N6 30.54R  
JACKSONVILLE CLEAR 33 31 92 NE5 30.56R WCI 29  
MOREHEAD CITY SUNNY 45 38 76 N3 30.54R  
KENANSVILLE CLEAR 28 27 93 CALM 30.56S  
NEW BERN CLEAR 34 34 100 MISG 30.57R  
ELIZABETH CITY CLEAR 33 30 88 MISG 30.58R  
   
........CENTRAL NC......
 
 
 
CITY SKY/WX TMP DP RH WIND PRES REMARKS
 
RALEIGH DURHAM PTCLDY 28 25 88 CALM 30.57R  
ROCKY MOUNT CLEAR 29 27 92 CALM 30.58R  
ROANOKE RAPIDS NOT AVBL  
FAYETTEVILLE CLEAR 32 28 85 N5 30.55R WCI 27  
HOFFMAN CLEAR 28 28 99 CALM 30.53R  
   
........WESTERN NC......
 
 
 
CITY SKY/WX TMP DP RH WIND PRES REMARKS
 
CHARLOTTE MOCLDY 36 30 79 N3 30.54S  
GREENSBORO PTCLDY 30 24 78 S5 30.53R WCI 25  
HICKORY NOT AVBL  
BOONE NOT AVBL  
ASHEVILLE NOT AVBL  
   
....................REST OF SOUTH CAROLINA..................
 
 
   
........EASTERN SC......
 
 
 
CITY SKY/WX TMP DP RH WIND PRES REMARKS
 
CHARLESTON PTCLDY 45 29 53 NE12 30.50R  
BEAUFORT MCAS CLEAR 46 33 60 NE9 30.48R  
HILTON HEAD CLEAR 50 39 66 NE14 30.47S  
   
........CENTRAL SC......
 
 
 
CITY SKY/WX TMP DP RH WIND PRES REMARKS
 
COLUMBIA PTCLDY 32 29 88 CALM 30.54R  
ORANGEBURG CLEAR 39 27 62 NE7 30.52R WCI 34  
SUMTER SHAW PTCLDY 34 27 74 N7 30.53R WCI 28  
   
........WESTERN SC......
 
 
 
CITY SKY/WX TMP DP RH WIND PRES REMARKS
 
GREENVILLE NOT AVBL  
ROCK HILL MOCLDY 32 31 96 CALM 30.53F  
ANDERSON MOCLDY 37 29 72 VRB3 30.52R  
CLEMSON NOT AVBL  
GREENWOOD PTCLDY 32 28 85 N5 30.54R WCI 27  
 
   
..................COASTAL AND OFFSHORE REPORTS...............
 
 
   
...............LOCAL PIERS AND NC RESERVE.............
 
 
 
STATION/POSITION TIME SKY/WX TEMP WIND PRES VSBY
 
AIR SEA DIR/SP/G  
(UTC) (F) (DEG/KT/KT) (MB) (MI)  
JOHNY MRCER PIER 1224 42 60 10/ 11/ 13 1033.0  
NC RESRV MASNBRO NOT AVBL  
OCEAN CREST PIER NOT AVBL  
SPRINGMAID PIER 1224 42 20/ 10/ 13 1034.3  
 
   
...............COASTAL AND OFFSHORE BUOYS.............
 
 
 
STATION/POSITION TIME SKY/WX TEMP WIND PRES VSBY
 
AIR SEA DIR/SP/G  
(UTC) (F) (DEG/KT/KT) (MB) (MI)  
DIMNDSHOAL 41025 1300 20/ 14/ 19 1033.4  
CAPE LOOKOUT 1200 48 10/ 12/ 16 1034.0R  
ONSLOW BAY 41036 NOT AVBL  
ONSLOW BAY 41064 NOT AVBL  
ONSLOW BAY 41159 1256 71 N/A  
WVE H/P(F/S)= 5/ 5  
 
MASNBO INL 41110 1256 63 N/A  
WVE H/P(F/S)= 4/ 5  
 
WILM HARBR 41108 1230 55 62 N/A  
WVE H/P(F/S)= 4/ 4  
 
27SE WRITB 41037 1208 58 70 40/ 17/ 23 1032.3R  
FRYING PAN 41013 1300 66 80/ 8/ 12 1032.0  
SUNST NRSH 41024 1208 44 59 30/ 17/ 21 1032.7R  
CAPRS NRSH 41029 1208 51 61 20/ 17/ 23 1031.6R  
EDISTO 41004 1250 69 74 100/ 10/ 16 1031.0R  
WVE H/P(F/S)= 4/ 6 SWL H/P/D(F/S/D)= 3/ 70/ 6  
 
   
.........OFFSHORE BUOYS BEYOND 100 NM OFFSHORE........
 
   
....IN A TRIANGLE---HAT TO BERMUDA TO BAHAMAS TO HAT..
 
 
 
 
STATION/POSITION TIME SKY/WX TEMP WIND PRES VSBY
 
AIR SEA DIR/SP/G  
(UTC) (F) (DEG/KT/KT) (MB) (MI)  
150E HAT 41001 1250 62 74 60/ 10/ 14 1033.1R  
WVE H/P(F/S)= 7/ 9 SWL H/P/D(F/S/D)= 7/ 10/ 9  
 
W BERMUDA 41048 1250 1030.2R  
ATLANTIC S 41049 1250 75 79 30/ 17/ 23 1019.2R  
WVE H/P(F/S)= 6/ 8 SWL H/P/D(F/S/D)= 5/ 50/ 8  
 
E BAHAMAS 41046 1250 80 81 40/ 17/ 21 1019.7R  
WVE H/P(F/S)= 7/ 6 SWL H/P/D(F/S/D)= 2/ 30/11  
 
NE BAHAMAS 41047 1250 74 80 50/ 25/ 29 1022.8R  
WVE H/P(F/S)= 11/ 9 SWL H/P/D(F/S/D)= 3/ 70/13  
 
120E CANVRL41010 1250 73 90/ 21/ 25 1027.2R  
WVE H/P(F/S)= 7/ 7 SWL H/P/D(F/S/D)= 5/ 60/ 7  
 
END  
 
 
CLICK HERE TO GO TO PREVIOUS BULLETINS.

The Nexlab NC Page
The Nexlab SC Page Main Text Page